Left ArrowRight Arrow

Hourly Observations for October 17, 2015

Temp ( °F °C ) Dew Point ( °F °C ) Humidity (%) Winds ( mph kmh ) Pressure ( in mb ) Visibility ( mi km ) Precip ( " mm )
12:53 am 00:53 Partly Cloudy 81 27.2 72 22.2 74 74 NE 7 11 29.97 1015 10 16 0.00 0.00
1:53 am 01:53 Clear 82 27.8 72 22.2 72 72 N 5 7 29.96 1015 10 16 0.00 0.00
2:53 am 02:53 Mostly Cloudy 83 28.3 71 21.7 67 67 Calm 29.95 1014 10 16 0.00 0.00
3:53 am 03:53 Mostly Clear 82 27.8 72 22.2 72 72 Calm 29.93 1013 10 16 0.00 0.00
4:53 am 04:53 Clear 81 27.2 72 22.2 74 74 Calm 29.93 1014 10 16 0.00 0.00
5:53 am 05:53 Clear 80 26.7 73 22.8 79 79 ESE 7 11 29.96 1015 10 16 0.00 0.00
6:53 am 06:53 Sunny 81 27.2 72 22.2 74 74 SE 7 11 29.98 1015 10 16 0.00 0.00
7:53 am 07:53 Sunny 84 28.9 74 23.3 72 72 SSE 13 20 29.98 1015 10 16 0.00 0.00
8:53 am 08:53 Mostly Cloudy 86 30 75 23.9 70 70 S 7 11 30.01 1016 10 16 0.00 0.00
9:53 am 09:53 Mostly Cloudy 86 30 77 25 75 75 SSW 9 15 30.02 1017 10 16 0.00 0.00
10:53 am 10:53 Partly Cloudy 88 31.1 77 25 70 70 S 8 13 30.00 1016 10 16 0.00 0.00
11:53 am 11:53 Partly Cloudy 87 30.6 76 24.4 70 70 W 9 15 29.98 1015 10 16 0.00 0.00
12:53 pm 12:53 Partly Cloudy 88 31.1 76 24.4 68 68 WNW 10 17 29.95 1014 10 16 0.00 0.00
1:53 pm 13:53 Mostly Cloudy 87 30.6 75 23.9 67 67 NW 12 19 29.95 1014 10 16 0.00 0.00
2:53 pm 14:53 Mostly Sunny 89 31.7 76 24.4 65 65 NW 13 20 29.93 1014 10 16 0.00 0.00
3:53 pm 15:53 Partly Cloudy 88 31.1 75 23.9 66 66 NNW 13 20 29.92 1013 10 16 0.00 0.00
4:53 pm 16:53 Partly Cloudy 87 30.6 74 23.3 65 65 NNW 13 20 29.92 1013 10 16 0.00 0.00
5:53 pm 17:53 Partly Cloudy 85 29.4 74 23.3 70 70 NW 7 11 29.93 1014 10 16 0.00 0.00
6:53 pm 18:53 Clear 84 28.9 75 23.9 74 74 W 7 11 29.95 1014 10 16 0.00 0.00
7:27 pm 19:27 Clear 84 29 75 24 74 74 SW 5 7 29.97 1015 10 16 0.00 0.00
7:29 pm 19:29 Clear 84 29 75 24 74 74 WSW 3 6 29.97 1015 10 16 0.00 0.00
7:53 pm 19:53 Clear 84 28.9 75 23.9 74 74 S 5 7 29.97 1015 10 16 0.00 0.00
8:53 pm 20:53 Clear 83 28.3 73 22.8 72 72 SE 8 13 29.98 1015 10 16 0.00 0.00
9:53 pm 21:53 Clear 82 27.8 73 22.8 74 74 SE 9 15 29.98 1015 10 16 0.00 0.00
10:53 pm 22:53 Clear 82 27.8 74 23.3 77 77 ESE 12 19 29.98 1015 10 16 0.00 0.00
11:53 pm 23:53 Partly Cloudy 82 27.8 74 23.3 77 77 E 7 11 29.98 1015 10 16 0.00 0.00

Powered by Vaisala Xweather